EN

Hourly Weather Abapo

Today, 20 June, Sunday

Time Temperature Precipitation Wind Pressure Humidity
00:00 +11°C° 0 mm 0 mps 716 mmHg 69%
01:00 +11°C° 0 mm 0 mps 716 mmHg 69%
02:00 +11°C° 0 mm 0 mps 715 mmHg 69%
03:00 +11°C° 0 mm 0 mps 715 mmHg 69%
04:00 +11°C° 0 mm 0 mps 715 mmHg 69%
05:00 +11°C° 0 mm 0 mps 715 mmHg 69%
06:00 +12°C° 0 mm 0 mps 715 mmHg 67%
07:00 +12°C° 0 mm 0 mps 715 mmHg 65%
08:00 +13°C° 0 mm 0 mps 715 mmHg 63%
09:00 +15°C° 0 mm 1 mps 715 mmHg 57%
10:00 +18°C° 0 mm 1 mps 715 mmHg 51%
11:00 +19°C° 0 mm 2 mps 714 mmHg 44%
12:00 +20°C° 0 mm 2 mps 713 mmHg 43%
13:00 +21°C° 0 mm 2 mps 712 mmHg 42%
14:00 +24°C° 0 mm 3 mps 711 mmHg 41%
15:00 +24°C° 0 mm 2 mps 711 mmHg 44%
16:00 +24°C° 0 mm 2 mps 710 mmHg 48%
17:00 +23°C° 0 mm 2 mps 709 mmHg 51%
18:00 +21°C° 0 mm 2 mps 710 mmHg 57%
19:00 +20°C° 0 mm 1 mps 710 mmHg 64%
20:00 +19°C° 0 mm 1 mps 711 mmHg 70%
21:00 +16°C° 0 mm 1 mps 711 mmHg 75%
22:00 +15°C° 0 mm 1 mps 711 mmHg 81%
23:00 +14°C° 0 mm 1 mps 711 mmHg 86%

Tomorrow, 21 June, Monday

Time Temperature Precipitation Wind Pressure Humidity
00:00 +14°C° 0 mm 1 mps 711 mmHg 88%
01:00 +13°C° 0 mm 1 mps 711 mmHg 89%
02:00 +13°C° 0 mm 1 mps 711 mmHg 91%
03:00 +13°C° 0 mm 1 mps 710 mmHg 92%
04:00 +12°C° 0 mm 1 mps 710 mmHg 92%
05:00 +12°C° 0 mm 1 mps 710 mmHg 92%
06:00 +13°C° 0 mm 1 mps 711 mmHg 87%
07:00 +14°C° 0 mm 1 mps 711 mmHg 82%
08:00 +14°C° 0 mm 0 mps 712 mmHg 77%
09:00 +18°C° 0 mm 1 mps 712 mmHg 68%
10:00 +21°C° 0 mm 1 mps 712 mmHg 58%
11:00 +24°C° 0 mm 1 mps 712 mmHg 49%
12:00 +25°C° 0 mm 1 mps 712 mmHg 47%
13:00 +26°C° 0 mm 2 mps 711 mmHg 44%
14:00 +27°C° 0 mm 2 mps 710 mmHg 42%
15:00 +27°C° 0 mm 2 mps 710 mmHg 44%
16:00 +26°C° 0 mm 2 mps 710 mmHg 46%
17:00 +26°C° 0 mm 2 mps 710 mmHg 49%
18:00 +24°C° 0 mm 2 mps 711 mmHg 55%
19:00 +21°C° 0 mm 2 mps 711 mmHg 61%
20:00 +19°C° 0 mm 2 mps 712 mmHg 67%
21:00 +20°C° 0 mm 1 mps 712 mmHg 66%
22:00 +20°C° 0 mm 1 mps 712 mmHg 65%
23:00 +20°C° 0 mm 1 mps 713 mmHg 64%

Day after tomorrow, 22 June, Tuesday

Time Temperature Precipitation Wind Pressure Humidity
00:00 +19°C° 0 mm 1 mps 712 mmHg 66%
01:00 +19°C° 0 mm 1 mps 712 mmHg 67%
02:00 +18°C° 0 mm 1 mps 712 mmHg 69%
03:00 +18°C° 0 mm 1 mps 712 mmHg 70%
04:00 +18°C° 0 mm 1 mps 712 mmHg 71%
05:00 +18°C° 0 mm 1 mps 712 mmHg 72%
06:00 +16°C° 0 mm 0 mps 712 mmHg 71%
07:00 +16°C° 0 mm 0 mps 713 mmHg 70%
08:00 +16°C° 0 mm 0 mps 713 mmHg 69%
09:00 +20°C° 0 mm 1 mps 713 mmHg 64%
10:00 +22°C° 0 mm 1 mps 713 mmHg 59%
11:00 +24°C° 0 mm 1 mps 712 mmHg 55%
12:00 +26°C° 0 mm 2 mps 711 mmHg 52%
13:00 +28°C° 0 mm 3 mps 710 mmHg 49%
14:00 +30°C° 0 mm 3 mps 709 mmHg 46%
15:00 +30°C° 0 mm 4 mps 708 mmHg 47%
16:00 +30°C° 0 mm 4 mps 708 mmHg 47%
17:00 +30°C° 0 mm 4 mps 707 mmHg 48%
18:00 +28°C° 0 mm 4 mps 707 mmHg 55%
19:00 +26°C° 0 mm 3 mps 707 mmHg 62%
20:00 +24°C° 0 mm 3 mps 708 mmHg 69%
21:00 +24°C° 0 mm 2 mps 708 mmHg 72%
22:00 +23°C° 0 mm 2 mps 708 mmHg 75%
23:00 +21°C° 0 mm 2 mps 708 mmHg 78%

23 June, Wednesday

Time Temperature Precipitation Wind Pressure Humidity
00:00 +21°C° 0 mm 2 mps 708 mmHg 80%
01:00 +21°C° 0 mm 1 mps 707 mmHg 83%
02:00 +20°C° 0 mm 1 mps 707 mmHg 85%
03:00 +20°C° 0 mm 1 mps 706 mmHg 85%
04:00 +20°C° 0 mm 1 mps 706 mmHg 86%
05:00 +20°C° 0 mm 1 mps 706 mmHg 86%
06:00 +21°C° 0 mm 1 mps 706 mmHg 80%
07:00 +23°C° 0 mm 2 mps 706 mmHg 74%
08:00 +24°C° 0 mm 2 mps 706 mmHg 69%
09:00 +27°C° 0 mm 3 mps 706 mmHg 57%
10:00 +32°C° 0 mm 4 mps 706 mmHg 46%
11:00 +35°C° 0 mm 5 mps 706 mmHg 34%
12:00 +36°C° 0 mm 5 mps 706 mmHg 32%
13:00 +38°C° 0 mm 6 mps 705 mmHg 29%
14:00 +39°C° 0 mm 6 mps 704 mmHg 27%
15:00 +36°C° 0 mm 6 mps 704 mmHg 31%
16:00 +35°C° 0 mm 6 mps 704 mmHg 35%
17:00 +33°C° 0 mm 6 mps 703 mmHg 39%
18:00 +30°C° 0 mm 5 mps 704 mmHg 45%
19:00 +28°C° 0 mm 4 mps 704 mmHg 52%
20:00 +26°C° 0 mm 3 mps 704 mmHg 58%
21:00 +26°C° 0 mm 3 mps 704 mmHg 61%
22:00 +25°C° 0 mm 2 mps 704 mmHg 63%
23:00 +24°C° 0 mm 1 mps 705 mmHg 66%

24 June, Thursday

Time Temperature Precipitation Wind Pressure Humidity
00:00 +24°C° 0 mm 1 mps 705 mmHg 69%
01:00 +23°C° 0 mm 1 mps 705 mmHg 72%
02:00 +22°C° 0 mm 1 mps 705 mmHg 75%
03:00 +22°C° 0 mm 1 mps 705 mmHg 77%
04:00 +21°C° 0 mm 1 mps 705 mmHg 79%
05:00 +21°C° 0 mm 1 mps 704 mmHg 81%
06:00 +22°C° 0 mm 1 mps 705 mmHg 77%
07:00 +22°C° 0 mm 1 mps 706 mmHg 74%
08:00 +23°C° 0 mm 1 mps 707 mmHg 70%
09:00 +25°C° 0 mm 2 mps 708 mmHg 62%
10:00 +27°C° 0 mm 3 mps 710 mmHg 54%
11:00 +29°C° 0 mm 4 mps 711 mmHg 46%
12:00 +30°C° 0 mm 3 mps 711 mmHg 43%
13:00 +30°C° 0 mm 3 mps 710 mmHg 40%
14:00 +31°C° 0 mm 3 mps 710 mmHg 38%
15:00 +30°C° 0 mm 3 mps 710 mmHg 40%
16:00 +29°C° 0 mm 3 mps 710 mmHg 41%
17:00 +27°C° 0 mm 3 mps 710 mmHg 43%
18:00 +26°C° 0 mm 2 mps 710 mmHg 48%
19:00 +24°C° 0 mm 2 mps 711 mmHg 52%
20:00 +23°C° 0 mm 1 mps 711 mmHg 57%
21:00 +22°C° 0 mm 1 mps 711 mmHg 58%
22:00 +22°C° 0 mm 1 mps 711 mmHg 59%
23:00 +21°C° 0 mm 1 mps 711 mmHg 60%

25 June, Friday

Time Temperature Precipitation Wind Pressure Humidity
00:00 +21°C° 0 mm 1 mps 711 mmHg 61%
01:00 +19°C° 0 mm 0 mps 711 mmHg 62%
02:00 +18°C° 0 mm 0 mps 710 mmHg 64%
03:00 +18°C° 0 mm 0 mps 710 mmHg 64%
04:00 +18°C° 0 mm 0 mps 710 mmHg 65%
05:00 +18°C° 0 mm 0 mps 709 mmHg 65%
06:00 +18°C° 0 mm 0 mps 710 mmHg 62%
07:00 +19°C° 0 mm 0 mps 710 mmHg 60%
08:00 +19°C° 0 mm 0 mps 710 mmHg 57%
09:00 +23°C° 0 mm 1 mps 710 mmHg 53%
10:00 +25°C° 0 mm 2 mps 710 mmHg 50%
11:00 +27°C° 0 mm 3 mps 710 mmHg 46%
12:00 +28°C° 0 mm 3 mps 708 mmHg 44%
13:00 +30°C° 0 mm 3 mps 707 mmHg 43%
14:00 +33°C° 0 mm 4 mps 706 mmHg 41%
15:00 +32°C° 0 mm 4 mps 705 mmHg 43%
16:00 +30°C° 0 mm 4 mps 705 mmHg 46%
17:00 +29°C° 0 mm 4 mps 705 mmHg 48%
18:00 +28°C° 0 mm 4 mps 705 mmHg 50%
19:00 +27°C° 0 mm 3 mps 705 mmHg 53%
20:00 +26°C° 0 mm 3 mps 706 mmHg 55%
21:00 +26°C° 0 mm 2 mps 706 mmHg 58%
22:00 +25°C° 0 mm 2 mps 706 mmHg 60%
23:00 +24°C° 0 mm 1 mps 706 mmHg 63%
Show more